Location: Tomatin
(57.3367°N, 3.9908°W)
Time: 01:33:00
(UTC+01:00)

ISS - Visible Passes

Search period start: 17 July 2019 00:00
Search period end: 27 July 2019 00:00
Orbit: 409 x 418 km, 51.6° (Epoch: 17 July)

Date Brightness Start Highest point End Pass type
(mag) Time Alt. Az. Time Alt. Az. Time Alt. Az.
17 Jul -3.0 01:17:42 10° SW 01:20:39 29° S 01:23:36 10° ESE visible
17 Jul -2.8 02:54:00 10° WSW 02:56:49 25° SSW 02:59:37 10° SE visible
17 Jul -1.9 22:53:58 10° S 22:55:34 13° SSE 22:57:12 10° ESE visible
18 Jul -2.8 00:28:39 10° SW 00:31:31 27° SSE 00:34:24 10° ESE visible
18 Jul -2.9 02:04:46 10° WSW 02:07:41 28° S 02:10:36 10° SE visible
18 Jul -2.1 03:41:42 10° WSW 03:43:41 15° SSW 03:45:41 10° S visible
18 Jul -2.6 23:39:39 10° SW 23:42:24 24° SSE 23:45:07 10° ESE visible
19 Jul -3.0 01:15:34 10° WSW 01:18:32 30° S 01:21:30 10° ESE visible
19 Jul -2.4 02:52:11 10° WSW 02:54:37 19° SSW 02:57:03 10° SSE visible
19 Jul -2.4 22:50:46 10° SSW 22:53:16 20° SSE 22:55:46 10° ESE visible
20 Jul -3.0 00:26:24 10° WSW 00:29:22 30° S 00:32:20 10° ESE visible
20 Jul -2.6 02:02:48 10° WSW 02:05:30 23° SSW 02:08:12 10° SE visible
20 Jul -2.9 23:37:15 10° SW 23:40:11 29° S 23:43:08 10° ESE visible
21 Jul -2.8 01:13:30 10° WSW 01:16:21 26° SSW 01:18:02 18° SSE visible
21 Jul -2.7 22:48:10 10° SW 22:51:01 26° SSE 22:53:52 10° ESE visible
22 Jul -2.9 00:24:14 10° WSW 00:27:11 29° S 00:29:25 15° SE visible
22 Jul -1.8 02:01:03 10° WSW 02:02:11 14° SW 02:02:11 14° SW visible
22 Jul -2.9 23:34:59 10° WSW 23:37:59 30° S 23:40:58 10° ESE visible
23 Jul -2.3 01:11:33 10° WSW 01:13:59 20° SSW 01:13:59 20° SSW visible
23 Jul -2.9 22:45:47 10° WSW 22:48:46 30° S 22:51:45 10° ESE visible
24 Jul -2.6 00:22:09 10° WSW 00:24:55 24° SSW 00:25:56 21° SSE visible
24 Jul -2.7 23:32:49 10° WSW 23:35:43 27° S 23:37:56 14° SE visible
25 Jul -1.5 01:09:58 10° WSW 01:10:44 12° SW 01:10:44 12° SW visible
25 Jul -2.8 22:43:31 10° WSW 22:46:30 30° S 22:49:27 10° ESE visible
26 Jul -2.1 00:20:15 10° WSW 00:22:32 17° SSW 00:22:50 17° SSW visible
26 Jul -2.3 23:30:45 10° WSW 23:33:21 21° SSW 23:34:56 16° SSE visible
